Orbital Elements at Epoch 2459000.5 (2020-May-31.0) TDB
Reference: JPL 8 (heliocentric ecliptic J2000)
Element | Value | Uncertainty (1-sigma) | Units |
e | .1815601856070918 | 6.1175e-08 | |
a | 2.389909160301348 | 1.723e-08 | au |
q | 1.955996809572947 | 1.4072e-07 | au |
i | 1.906212716675651 | 6.6597e-06 | deg |
node | 224.043036512478 | 0.00016181 | deg |
peri | 192.2547961046675 | 0.00016694 | deg |
M | 58.67527787789139 | 3.0846e-05 | deg |
tp | 2458780.550402316263 (2019-Oct-24.05040232) | 0.00011675 | TDB |
period | 1349.492631818978 3.69 | 1.4594e-05 3.996e-08 | d yr |
n | .2667669252219309 | 2.8849e-09 | deg/d |
Q | 2.823821511029749 | 2.0358e-08 | au |
|
| | Orbit Determination Parameters
Additional Information
|